Other Public Products
Issued by NWS Grand Forks, ND

Home | Current Version | Previous Version | Graphics & Text | Print | Product List | Glossary On
Versions: 1 2 3 4 5 6 7 8 9 10 11 12 13 14 15 16 17 18 19 20 21 22 23 24 25 26 27 28 29 30 31 32 33 34 35 36 37 38 39 40 41 42 43 44 45 46 47 48 49 50
000
FPUS83 KFGF 241610
OPUFGF
PRAIRIE TO PINES WEATHER ROUNDUP
NATIONAL WEATHER SERVICE EASTERN NORTH DAKOTA/GRAND FORKS ND
1100 AM CDT SAT SEP 24 2016

 **SATELLITE DATA USED TO AUGMENT SKY COVER AT AUTOMATED STATIONS**
 *****  WEATHER ACROSS EASTERN NORTH DAKOTA  *****

CITY           SKY/WX    TMP DP  RH WIND       PRES   REMARKS
GRAND FORKS    CLOUDY    68  64  87 SE15      29.86S
GRAND FORKS AF CLOUDY    68  66  94 S14       29.87R
GRAND CITY NWS NOT AVBL
BUXTON         NOT AVBL
DEVILS LAKE    CLOUDY    67  65  93 SE13      29.81F FOG
FARGO          PTSUNNY   74  65  73 SE22G29   29.87F
WAHPETON ARPT  PTSUNNY   72  63  73 SE23G31   29.90S
$$

 *****  WEATHER ACROSS CENTRAL AND WESTERN NORTH DAKOTA  *****

CITY           SKY/WX    TMP DP  RH WIND       PRES   REMARKS
JAMESTOWN      MOSUNNY   73  66  78 S17G26    29.80F
BISMARCK       CLOUDY    70  64  81 SE13      29.74S
MINOT          LGT RAIN  65  64  97 E12       29.75R FOG
MINOT AFB      CLOUDY    63  63  99 SE10      29.74S FOG
GARRISON         N/A     68  67  96 SE8       29.73F
WILLISTON      CLOUDY    57  55  93 N13       29.76R
DICKINSON      FOG       58  58 100 NE8       29.69F VSB<1/4
HETTINGER      CLOUDY    62  60  93 S14       29.72R
$$

 *****  OTHER OBSERVATIONS NORTHEAST NORTH DAKOTA  *****

CITY           SKY/WX    TMP DP  RH WIND       PRES   REMARKS
WALHALLA       FAIR      63  63 100 SE9       29.87S FOG
LANGDON        FOG       63  63 100 SE17G23   29.86S VSB 1/2
CAVALIER       CLOUDY    63  63 100 SE7       29.87S FOG
GRAFTON        CLOUDY    64  64 100 SE15      29.88S
CANDO          CLOUDY    66  66 100 SE17G23   29.83F
FORT TOTTEN      N/A     69  69 100 SE9       29.95S
ROLLA          FOG       61  61 100 SE13      29.83S VSB<1/4
RUGBY          FAIR      68  68 100 SE16G22   29.78S
 ***** THE ABOVE OBSERVATIONS ARE NON NWS ARE NOT QUALITY
        CONTROLLED AND MAY MIS-REPORT RAIN FOR SNOW...
$$

 *****  OTHER OBSERVATIONS SOUTHEAST NORTH DAKOTA *****

CITY           SKY/WX    TMP DP  RH WIND       PRES   REMARKS
COOPERSTOWN    NOT AVBL
VALLEY CITY    CLOUDY    72  72 100 SE15G25   29.86S
OAKES          NOT AVBL
GWINNER        FAIR      73  66  78 SE20G25   29.85F
SHEYENNE NWR     N/A     72  66  81 S20       29.95
BUFFALO        NOT AVBL
WYNDMERE       NOT AVBL
 ***** THE ABOVE OBSERVATIONS ARE NON NWS ARE NOT QUALITY
       CONTROLLED AND MAY MIS-REPORT RAIN FOR SNOW...
$$

  *****  WEATHER ACROSS NORTHERN MINNESOTA  *****

CITY           SKY/WX    TMP DP  RH WIND       PRES   REMARKS
FLAG ISLAND    CLOUDY    57  57 100 SE6       30.00S FOG
WARROAD        CLOUDY    59  55  88 E8        29.98S FOG
ROSEAU         CLOUDY    63  57  82 SE8       29.96S
HALLOCK        CLOUDY    66  63  88 SE14G20   29.89S
THF RVR FALLS  PTSUNNY   69  63  81 SE15      29.93R
HALSTAD          N/A     70  64  82 SE21        N/A
FOSSTON        CLOUDY    70  63  78 SE14G24   29.95R
BAUDETTE       CLOUDY    60  58  92 SE12      30.01S
WASKISH        CLOUDY    64  61  88 SE13G22   30.00F
CROOKSTON      MOSUNNY   72  64  78 S18G24    29.90R
$$
  *****  WEATHER ACROSS CENTRAL AND WEST MINNESOTA  *****

CITY           SKY/WX    TMP DP  RH WIND       PRES   REMARKS
BEMIDJI        CLOUDY    62  61  96 SE12      30.01R
PARK RAPIDS    CLOUDY    64  61  90 SE16G24   30.01S FOG
WADENA         NOT AVBL
DETROIT LAKES  CLOUDY    64  63  94 SE15      29.97S
MOORHEAD       MOSUNNY   73  64  73 SE18G30   29.89F
FERGUS FALLS   MOSUNNY   72  66  83 SE22G29   29.95S
ELBOW LAKE     CLOUDY    68  65  89 E21G29    29.95F
MORRIS MN      SUNNY     72  66  83 SE21G26   29.93F
STAPLES        CLOUDY    61  61 100 SE9       30.04R FOG
WHEATON        MOSUNNY   73  68  83 SE22G30   29.91F
$$
  *****  WEATHER ELSEWHERE ACROSS MINNESOTA  *****

CITY           SKY/WX    TMP DP  RH WIND       PRES   REMARKS
DULUTH         CLOUDY    57  57 100 SE9       30.15S FOG
INTRNTL FALLS  CLOUDY    60  56  86 SE9       30.07F
ELY            CLOUDY    61  54  77 SE10      30.15F
CLOQUET        CLOUDY    57  54  88 E6        30.14F FOG
BRAINERD       CLOUDY    61  60  97 SE7       30.06F FOG
HIBBING        CLOUDY    57  54  89 SE12      30.12F
ALEXANDRIA     CLOUDY    66  66 100 SE15G29   30.02R FOG
SAINT CLOUD    CLOUDY    63  63 100 SE12G18   30.07R FOG
MINNEAPOLIS    CLOUDY    65  61  87 SE15      30.09S
$$

  *****  WEATHER ACROSS SOUTH DAKOTA  *****

CITY           SKY/WX    TMP DP  RH WIND       PRES   REMARKS
SIOUX FALLS    CLOUDY    76  67  73 SE18G25   29.91S
BROOKINGS      CLOUDY    72  66  81 SE20G25   29.91R
WATERTOWN      CLOUDY    73  65  75 S21G30    29.90R
HURON          CLOUDY    74  65  73 S16G26    29.83R
SISSETON         N/A     73  66  78 S16G26    29.87F
ABERDEEN       MOSUNNY   76  65  68 S21G33    29.82R
MITCHELL       CLOUDY    77  66  68 S18G24    29.85S
PIERRE         SUNNY     65  53  65 S12       29.79R
MOBRIDGE       CLOUDY    69  57  65 SE15      29.74S
RAPID CITY     SUNNY     62  45  53 W10       29.79S
$$

  *****  SOME WEATHER IN NEARBY STATES *****

CITY           SKY/WX    TMP DP  RH WIND       PRES   REMARKS
GLASGOW MT     LGT RAIN  49  48  97 W10G18    29.87F FOG
GREAT FALLS MT CLOUDY    55  38  52 W16       30.08R
CHEYENNE WY    SUNNY     50  39  66 S10       30.02R
SCOTTSBLUFF NE SUNNY     57  41  55 W6        29.98R
OMAHA NE       PTSUNNY   81  69  67 S15       29.95F
DES MOINES IA  MOSUNNY   79  68  69 SE12      30.05F
DAVENPORT IA   CLOUDY    69  66  90 SE9       30.16R FOG
CHICAGO IL     CLOUDY    68  62  81 E8        30.20S
EAU CLAIRE WI  CLOUDY    64  59  83 SE9       30.17S
LA CROSSE WI   CLOUDY    68  62  81 E8        30.16S
$$

  *****  SOME NATIONAL WEATHER *****

CITY           SKY/WX    TMP DP  RH WIND       PRES   REMARKS
LA GUARDIA NY  PTSUNNY   66  52  60 NE8       30.12F
RALEIGH NC     SUNNY     85  65  51 CALM      30.07F
ATLANTA GA     MOSUNNY   87  66  49 NW7       30.13S
NEW ORLEANS LA MOSUNNY   89  74  60 E6        30.09R HX  98
OKLAHOMA CITY  PTSUNNY   79  70  74 S16G25    30.01R
ALBUQUERQUE NM SUNNY     55  38  52 CALM      30.19S
SALT LAKE CITY CLOUDY    50  47  89 E7        30.20R
LOS ANGELES CA SUNNY     74  36  25 VRB7      30.00S
BOISE ID       PTSUNNY   53  41  63 W10       30.27R
SEATTLE WA     PTSUNNY   55  49  80 W5        30.38R
$$

*** WEATHER ACROSS MANITOBA...SASKATCHEWAN AND ONTARIO ***
                ***ONTARIO***

CITY           SKY/WX    TMP DP  RH WIND       PRES   REMARKS
GERALDTON      MOSUNNY   57  41  54 VRB2      30.30F
THUNDER BAY    PTSUNNY   61  52  72 SE14      30.25S
SIOUX LOOKOUT  LGT RAIN  52  50  93 SE8G17    30.16F
TORONTO        MOSUNNY   61  36  39 NE8       30.28S
BIG TROUT LK   SUNNY     55  41  58 S5        30.23F
PICKLE LAKE    PTSUNNY   57  39  51 SE12      30.23F
DRYDEN         CLOUDY    54  52  94 SE10G17   30.11F
KENORA         LGT RAIN  55  55 100 SE10G20   30.05S VSB 1
$$
                *** MANITOBA***

CITY           SKY/WX    TMP DP  RH WIND       PRES   REMARKS
BRANDON        FOG       57  57 100 E10       29.82F VSB 3/4
DAUPHIN        LGT RAIN  54  54 100 E6        29.85R
ISLAND LAKE    CLOUDY    54  43  66 VRB6      30.07F
PILOT MOUND    NOT AVBL
THE PAS        DRIZZLE   52  50  93 SE6       29.89S FOG
THOMPSON       LGT RAIN  48  43  81 E3        30.02S
WINNIPEG       DRIZZLE   59  57  94 SE16G26   29.91F FOG
LYNN LAKE      CLOUDY    48  43  81 SE7       29.96F
CHURCHILL      PTSUNNY   54  43  66 S3        30.13F
GILLAM         PTSUNNY   50  41  71 SE3       30.13F
$$
                ***SASKATCHEWAN***

CITY           SKY/WX    TMP DP  RH WIND       PRES   REMARKS
ESTEVAN        LGT RAIN  55  55 100 N9        29.76F VSB 3/4
KINDERSLEY     MOSUNNY   50  50 100 W7        29.94S
LLOYDMINSTER   PTSUNNY   50  48  93 NW10      29.96R
PRINCE ALBERT  CLOUDY    50  48  93 N5        29.88R FOG
REGINA         LGT RAIN  52  52 100 NW6       29.85R VSB 1
YORKTON        LGT RAIN  52  50  93 NE6       29.83S  C1F1C2F2C3F3C4F4C5F5C6F6C7F7C8F8C9F9CaFaCbFbCcFcCdFdCe!


USA.gov is the U.S. government's official web portal to all federal, state and local government web resources and services.